User: anonymous   Login
Location: Ellingshausen
(50.5460°N, 10.4723°E)
Time: 10:57:14
(UTC+00:00)
Language:

Meteor 1-16 Rocket - Orbit

View from above orbital plane
View from above orbital plane
View from above satellite
View from above satellite

Ground track
Ground track

The orbit is defined by the following mean orbital elements,

1 07210U          26071.76377519 +.00000000 +00000-0 +61319-4 0 00008
2 07210  81.2389 162.6996 0079432 302.8591  56.4953 14.13625256    02
Epoch (UTC): 12 March 2026 18:19:50
Eccentricity: 0.0079432
inclination: 81.2389°
perigee height: 790 km
apogee height: 904 km
right ascension of ascending node: 162.6996°
argument of perigee: 302.8591°
revolutions per day: 14.13625256
mean anomaly at epoch: 56.4953°

The dashed part of the orbit path shows where the satellite is in the earth's shadow,  

DLR